COSMOS 1988 (GLONASS)

Satellite information

Favourite Embed

Satellite Type and Status

PAYLOADIN ORBIT

Key statistics

Satellite COSMOS 1988 (GLONASS) at a glance.

Uptime

13388

Days in orbit

Revolutions

≈ 2.1

Per day

Orbit

MEO

Medium Earth Orbit

Inclination

64.8

Latest

Satellite identification and parameters

Extended collection of information and parameters for COSMOS 1988 (GLONASS).

Object identification

Identified? True

Debris? False

Object name: COSMOS 1988 (GLONASS)

International designator: 1989-001B

Object number (NORAD): 19750

Object ID (CCSDS): 19750

Country: COMMONWEALTH OF INDEPENDENT STATES (CIS)

Current information (Y/N): Y

RCS size: LARGE

Orbital parameters

Period: 675.733 minutes

Inclination: 64.781 deg

SMA: 25508.041 km

Apoapsis: 19167.811 km

Periapsis: 19092.002 km

RAAN: 82.3672 deg

Eccentricy: 0.00148598

Argument of periapsis: 217.1182 deg

Mean anomaly: 142.1384 deg

Mean motion: 2.13101787 rev/day

Mean motion (dot): 0.0000006 rev/day2

B* drag term: 0.0 1/REarth

Two-line elements (TLE)

Creation date: Sept. 6, 2025, 2:09 a.m.

Reference frame: TEME

Reference center: EARTH

Epoch: Sept. 5, 2025, 3:20 p.m. UTC

TLE line 0: 0 COSMOS 1988 (GLONASS)

TLE line 1: 1 19750U 89001B 25248.63909477 .00000060 00000-0 00000-0 0 9992

TLE line 2: 2 19750 64.7810 82.3672 0014860 217.1182 142.1384 2.13101787285210

Live tracking on map

Real-time ground track for satellite COSMOS 1988 (GLONASS).

In-orbit conjunctions

A list of the most updated potential collisions computed for object COSMOS 1988 (GLONASS).

Target Orbit TCA Probability of collision Miss distance Type
SL-12 R/B(2) MEO 2024-06-16 06:06:26 TBA 2863.0 (m) ROCKET BODY

Associated space launch

GLONASS navigation satellites

COSMOS 1988 (GLONASS) was lifted into orbit during the mission ‘Proton | Uragan 32 & 33’, on board a Proton space rocket.

The launch took place on Jan. 10, 1989, 2:05 a.m. from 200/39 (200L).

For more information about the launch, click the button.

Launch to space Proton | Uragan 32 & 33
Proton | Uragan 32 & 33

Agency: N/A

Status: Launch Successful

Launch date: Jan. 10, 1989, 2:05 a.m. UTC

Rocket: Proton

Launch pad: 200/39 (200L)

Location: Baikonur Cosmodrome, Republic of Kazakhstan

...

Latest news about this satellite

There are no fresh news available about this satellite. Check back as we update our databases every day.


Newsletter sign-up

Weekly statistics, charts and insights to help you stay on top of the space industry.